Lid_Strength_Index
-1 -0 1 3 9 9 11 10 9 8 8 7 7 7 8 7 8 10 3 2 1 1 -0 -1 -1 -1 -1 -1 -1 -1 -1 -1 -1 -1 -1 -1 -1 -1 -1 -1 -1 -1 -1 -1 -1 -1 -1 -1 -1
1 1 2 5 11 12 11 9 8 8 7 7 7 7 8 8 5 4 3 1 1 1 -0 -0 -0 -1 -1 -1 -1 -1 -1 -1 -1 -1 -1 -1 -1 -1 -1 -1 -1 -1 -1 -1 -1 -1 -1 -1 -1
1 2 5 8 10 12 12 9 8 7 6 7 7 7 8 7 5 4 2 1 1 1 -0 -0 -0 -1 -1 -1 -1 -1 -1 -1 -2 -1 -1 -1 -1 -1 -1 -1 -1 -1 -1 -1 -1 -1 -1 0 1
2 4 5 10 10 10 9 8 7 7 7 6 7 8 7 5 5 3 1 1 1 1 0 -0 -1 -1 -1 -1 -1 -1 -1 -1 -1 -1 -1 -1 -1 -2 -1 -1 -1 -1 -1 -1 -1 -1 -1 -0 1
3 5 9 10 10 9 9 7 7 8 7 7 7 8 7 5 3 2 1 1 1 1 1 -0 -0 -1 -1 -1 -1 -1 -1 -1 -1 -1 -2 -2 -2 -2 -1 -1 -1 -1 -1 -1 -1 -1 -1 -0 1
6 7 10 11 10 8 8 7 7 8 8 8 9 8 8 4 4 3 2 2 1 1 0 -0 1 0 -0 -1 -1 -1 -1 -1 -1 -1 -1 -2 -2 -2 -1 -1 -1 -1 -1 -1 -2 -1 -0 1 1
7 8 10 11 10 10 8 7 8 8 8 8 7 10 8 6 4 4 2 1 1 1 0 1 0 0 1 0 0 -0 -1 -1 -1 -1 -1 -1 -2 -2 -2 -2 -1 -1 -1 -2 -1 -0 0 1 2
6 8 11 11 11 11 8 9 8 8 8 7 7 10 8 6 3 3 2 1 1 1 1 1 0 0 0 0 1 1 0 0 -0 -0 -0 -0 -1 -1 -1 -1 -2 -2 -2 -2 -1 -0 1 1 3
5 10 11 10 11 10 8 9 8 7 8 7 7 8 6 5 4 4 2 3 2 2 1 1 1 1 0 0 1 2 1 1 1 1 2 2 1 1 0 -0 -1 -2 -2 -1 -0 0 1 2 4
8 10 10 9 9 10 9 9 9 9 9 8 8 7 6 6 6 6 5 4 3 3 2 1 1 1 1 0 1 0 0 -0 0 1 2 2 2 2 1 1 -1 -2 -2 -1 -0 1 2 4 8
7 10 9 9 8 8 9 9 9 10 10 8 8 7 7 7 7 8 7 6 5 3 2 1 2 1 1 1 1 0 0 1 -0 -0 0 1 1 3 3 2 1 2 1 3 3 4 6 8 9
9 8 8 7 7 8 9 8 9 9 9 7 7 7 7 8 8 7 7 7 7 5 3 2 1 2 2 1 2 2 1 1 0 -0 0 1 1 3 4 2 2 3 4 4 5 8 9 9 9
9 8 7 7 8 8 8 9 9 9 8 7 7 7 8 8 8 7 6 6 7 7 6 4 2 2 2 2 2 2 2 1 1 1 0 0 1 4 4 3 2 2 4 5 6 9 9 9 10
8 9 9 9 9 9 9 10 10 9 8 8 8 8 8 8 8 8 8 8 7 6 6 5 3 1 2 2 2 2 2 2 1 1 0 1 3 4 4 3 3 3 3 5 8 9 9 10 10
9 11 10 9 9 10 9 12 11 9 9 9 9 9 8 8 8 8 8 8 7 7 6 6 5 2 2 2 2 2 2 2 2 1 2 3 4 4 4 4 4 4 5 7 9 9 9 10 10
11 12 14 10 10 10 11 14 10 9 10 9 9 10 9 9 9 8 8 8 8 8 8 7 5 5 2 2 2 2 2 2 2 2 2 3 3 4 5 4 4 5 6 9 10 10 11 11 11
12 15 13 11 10 11 12 14 10 9 9 10 10 10 10 10 10 9 9 10 9 9 9 8 7 6 4 2 2 2 2 2 2 2 3 3 3 4 4 5 5 6 8 10 10 11 11 12 12
14 14 13 13 11 11 13 13 11 9 10 10 10 10 10 10 10 9 10 10 10 10 10 9 8 7 5 4 3 3 2 2 2 2 3 3 3 3 5 6 6 7 9 10 10 11 11 11 12
12 13 14 12 10 12 12 12 11 10 9 11 12 11 11 11 10 10 10 10 11 11 11 10 9 9 7 6 5 5 5 4 3 3 3 2 3 4 6 7 7 9 9 10 10 11 12 12 12
13 14 14 12 10 12 12 13 11 10 10 11 11 11 12 11 11 11 11 11 11 11 11 11 10 10 9 7 6 6 7 6 5 3 3 3 4 5 6 7 8 10 11 11 11 11 12 12 12
13 14 14 13 12 13 13 14 13 10 10 10 11 11 11 12 12 12 12 12 12 12 12 11 11 11 10 9 7 7 7 8 8 8 6 4 4 5 7 8 9 10 11 11 11 12 12 14 13
14 11 12 13 15 17 14 18 14 11 12 11 12 12 12 12 11 11 12 12 12 12 12 11 11 11 11 11 10 11 10 10 9 9 9 8 6 6 7 8 9 11 11 12 11 11 11 13 13
13 12 14 14 15 16 15 17 14 12 13 12 12 11 11 11 11 11 12 11 11 12 12 12 11 11 11 11 12 12 12 11 11 11 11 11 9 8 8 8 9 10 11 12 12 13 12 12 13
12 13 14 14 15 19 15 14 16 14 12 13 12 11 11 11 11 11 11 11 11 11 12 12 12 12 12 12 12 13 13 13 13 12 12 12 11 10 9 9 10 10 11 12 12 13 13 13 13
13 14 18 19 20 19 14 15 14 12 11 11 12 12 11 11 11 11 11 12 11 12 11 11 13 13 12 12 12 13 13 12 12 13 13 13 13 12 11 11 11 11 11 11 12 13 13 13 13
12 12 18 22 21 18 15 17 13 11 11 11 11 12 12 12 11 11 11 11 11 11 11 12 12 13 13 12 12 12 12 12 12 12 12 13 13 13 13 12 12 11 11 11 12 13 14 14 13
13 14 11 16 17 19 15 13 11 12 12 12 12 12 13 12 12 12 11 11 11 11 11 12 12 12 12 12 13 13 13 13 13 13 13 12 12 12 13 13 13 13 13 13 13 14 14 14 14
11 9 16 16 21 23 17 15 14 12 13 12 12 12 12 12 12 12 12 11 12 11 11 12 12 12 12 12 12 12 12 12 13 14 14 14 13 13 13 13 13 13 13 14 14 15 14 15 15
11 13 13 12 15 20 20 16 11 11 10 12 12 12 12 12 13 12 12 12 12 12 12 12 12 12 13 13 13 13 12 12 13 14 13 13 14 14 13 13 14 14 14 14 14 14 14 15 15
10 12 12 16 17 15 16 16 8 10 11 11 12 12 12 12 13 13 12 13 12 12 13 13 13 13 13 13 14 13 13 12 13 13 13 14 14 13 13 14 14 14 14 14 15 15 15 15 15